Weather History for HEGN - April, 2013

Change the Weather History Date:

Tuesday, April 30, 2013

  Actual Average Record
Temperature  
Mean Temperature 88 °F -  
Max Temperature 106 °F 89 °F 106 °F (2013)
Min Temperature 71 °F 72 °F 62 °F (2002)
Cooling Degree Days 24    
Growing Degree Days 38 (Base 50)    
Moisture  
Dew Point 37 °F    
Average Humidity 18    
Maximum Humidity 51    
Minimum Humidity 4    
Precipitation  
Precipitation 0.00 in - - ()
Sea Level Pressure  
Sea Level Pressure 29.79 in    
Wind  
Wind Speed 7 mph ()    
Max Wind Speed 17 mph    
Max Gust Speed -    
Visibility 6.0 miles    
Events      
Averages and records for this station are not official NWS values.
T = Trace of Precipitation, MM = Missing Value Source: Averaged Metar Reports

Daily Weather History Graph

Daily Weather History Graph

Search for Another Location

Airport or City:

Trip Planner

Search our weather history database for the weather conditions in past years. The results will help you decide how hot, cold, wet, or windy it might be!

Date:

Astronomy

Apr. 30, 2013 Rise Set
Actual Time 5:06 AM EET 6:17 PM EET
Civil Twilight 4:42 AM EET 6:41 PM EET
Nautical Twilight 4:13 AM EET 7:11 PM EET
Astronomical Twilight 3:43 AM EET 7:41 PM EET
Moon 11:09 PM EET (4/30) 9:18 AM EET (4/30)
Length of Visible Light 13h 59m
Length of Day
13h 10m
Waning Gibbous, 73% of the Moon is Illuminated
Apr 30
Waning Gibbous
May 2
Last Quarter
May 10
New
May 18
First Quarter
May 25
Full

Hourly Weather History & Observations

Time (EET) Temp. Heat Index Dew Point Humidity Pressure Visibility Wind Dir Wind Speed Gust Speed Precip Events Conditions
12:00 AM 77.0 °F - 30.2 °F 18% 29.77 in - NW 3.5 mph - N/A   Clear
1:00 AM 77.0 °F - 30.2 °F 18% 29.77 in - NW 3.5 mph - N/A   Clear
2:00 AM 74 °F - 32 °F 12% 29.79 in 6 mi NNW 9.2 mph - -  
2:00 AM 75.2 °F - 32.0 °F 21% 29.77 in - NNW 9.2 mph - N/A   Clear
3:00 AM 71.6 °F - 28.4 °F 20% 29.77 in - NW 6.9 mph - N/A   Clear
4:00 AM 73.4 °F - 23.0 °F 15% 29.80 in - WNW 13.8 mph - N/A   Clear
5:00 AM 75.2 °F - 24.8 °F 15% 29.80 in - NW 11.5 mph - N/A   Clear
6:00 AM 77.0 °F - 32.0 °F 19% 29.83 in - North 3.5 mph - N/A   Clear
7:00 AM 77.0 °F - 30.2 °F 18% 29.83 in - North 3.5 mph - N/A   Clear
8:00 AM 87 °F - 34 °F 8% 29.85 in 6 mi NNW 11.5 mph - -  
8:00 AM 86.0 °F - 33.8 °F 15% 29.83 in - NNW 11.5 mph - N/A   Clear
9:00 AM 87.8 °F - 33.8 °F 15% 29.83 in - North 11.5 mph - N/A   Clear
9:06 AM 87.8 °F - 33.8 °F 15% 29.83 in - North 11.5 mph - N/A   Clear
10:00 AM 91.4 °F - 37.4 °F 15% 29.83 in - North 17.3 mph - N/A   Clear
11:00 AM 95.0 °F - 35.6 °F 12% 29.83 in - North 13.8 mph - N/A   Clear
12:00 PM 100.4 °F - 32.0 °F 9% 29.80 in - NE 6.9 mph - N/A   Clear
1:00 PM 105.8 °F - 32.0 °F 8% 29.80 in - ENE 3.5 mph - N/A   Clear
2:00 PM 104 °F - 28 °F 4% 29.78 in 6 mi East 1.2 mph - -  
2:00 PM 104.0 °F - 28.4 °F 7% 29.83 in - East 1.2 mph - N/A   Clear
3:00 PM 104.0 °F - 48.2 °F 15% 29.74 in - ENE 5.8 mph - N/A   Clear
4:00 PM 104.0 °F - 39.2 °F 11% 29.74 in - ESE 4.6 mph - N/A   Clear
5:00 PM 100.4 °F - 37.4 °F 11% 29.71 in - SSE 3.5 mph - N/A   Clear
6:00 PM 87.8 °F - 51.8 °F 29% 29.71 in - East 5.8 mph - N/A   Clear
7:00 PM 84.2 °F 83.8 °F 59.0 °F 42% 29.74 in - North 9.2 mph - N/A   Clear
8:00 PM 82 °F - 63 °F 43% 29.77 in 6 mi North 9.2 mph - -  
8:00 PM 82.4 °F 83.4 °F 62.6 °F 51% 29.74 in - North 9.2 mph - N/A   Clear
9:00 PM 84.2 °F - 42.8 °F 23% 29.77 in - WNW 8.1 mph - N/A   Clear
10:00 PM 82.4 °F - 39.2 °F 21% 29.77 in - NNW 5.8 mph - N/A   Clear
11:00 PM 82.4 °F - 35.6 °F 19% 29.77 in - NNW 8.1 mph - N/A   Clear